Weather History for Lambertville, MI

Change the Weather History Date:

Sunday, November 4, 2012

  Actual Average (KTOL) Record (KTOL)
Temperature  
Mean Temperature 36 °F 46 °F  
Max Temperature 39 °F 55 °F 80 °F (2003)
Min Temperature 32 °F 37 °F 17 °F (1951)
Degree Days  
Heating Degree Days 29 19  
Month to date heating degree days 74  
Since 1 July heating degree days 600  
Cooling Degree Days 0 0  
Month to date cooling degree days 0  
Year to date cooling degree days 793  
Moisture  
Dew Point 26 °F    
Average Humidity 67    
Maximum Humidity 75    
Minimum Humidity 56    
Precipitation  
Precipitation 0.00 in 0.08 in 1.18 in (1959)
Month to date precipitation 0.35  
Year to date precipitation 29.05  
Snow  
Snow 0.00 in 0.00 in - ()
Month to date snowfall 0.1  
Since 1 July snowfall 0.3  
Since 1 September snowfall 0.3  
Snow Depth -    
Sea Level Pressure  
Sea Level Pressure 30.18 in    
Wind  
Wind Speed 3 mph (NNW)    
Max Wind Speed 8 mph    
Max Gust Speed -    
Visibility 10 miles    
Events      
T = Trace of Precipitation, MM = Missing Value Source: NWS Daily Summary

Daily Weather History Graph

Daily Weather History Graph

Search for Another Location

Airport:

Trip Planner

Search our weather history database for the weather conditions in past years. The results will help you decide how hot, cold, wet, or windy it might be!

Date:

Astronomy

Nov. 04, 2012 Rise Set
Actual Time 7:11 AM EST 5:24 PM EST
Civil Twilight 6:41 AM EST 5:53 PM EST
Nautical Twilight 6:08 AM EST 6:26 PM EST
Astronomical Twilight 5:36 AM EST 6:59 PM EST
Moon 10:01 PM EST (11/4) 11:55 AM EST (11/4)
Length of Visible Light 11h 12m
Length of Day
10h 13m
Waning Gibbous, 72% of the Moon is Illuminated
Nov 4
Waning Gibbous
Nov 6
Last Quarter
Nov 13
New
Nov 20
First Quarter
Nov 28
Full

Hourly Weather History & Observations

Time (EST) Temp. Windchill Dew Point Humidity Pressure Visibility Wind Dir Wind Speed Gust Speed Precip Events Conditions
12:15 AM 35.6 °F 29.9 °F 27.5 °F 72% 30.17 in 10.0 mi NNE 6.9 mph - N/A   Mostly Cloudy
12:35 AM 35.1 °F 32.2 °F 27.5 °F 74% 30.17 in 10.0 mi NNE 3.5 mph - N/A   Mostly Cloudy
12:55 AM 34.7 °F 31.8 °F 27.3 °F 74% 30.18 in 10.0 mi North 3.5 mph - N/A   Overcast
1:15 AM 34.9 °F 32.0 °F 27.5 °F 74% 30.18 in 10.0 mi North 3.5 mph - N/A   Overcast
1:34 AM 34.9 °F - 27.5 °F 74% 30.18 in 10.0 mi Calm Calm - N/A   Overcast
1:55 AM 34.9 °F 32.0 °F 27.5 °F 74% 30.18 in 10.0 mi North 3.5 mph - N/A   Overcast
1:15 AM 34.9 °F 32.0 °F 27.3 °F 74% 30.18 in 10.0 mi North 3.5 mph - N/A   Overcast
1:35 AM 34.7 °F 31.8 °F 27.0 °F 73% 30.18 in 10.0 mi NNE 3.5 mph - N/A   Overcast
1:55 AM 34.2 °F 31.2 °F 26.8 °F 74% 30.17 in 10.0 mi NNE 3.5 mph - N/A   Mostly Cloudy
2:14 AM 34.0 °F 31.0 °F 26.6 °F 74% 30.17 in 10.0 mi NNE 3.5 mph - N/A   Mostly Cloudy
2:35 AM 33.8 °F - 26.6 °F 75% 30.17 in 10.0 mi Calm Calm - N/A   Overcast
2:55 AM 34.2 °F - 26.6 °F 74% 30.16 in 10.0 mi Calm Calm - N/A   Overcast
3:14 AM 34.2 °F 31.2 °F 26.6 °F 74% 30.16 in 10.0 mi NNE 3.5 mph - N/A   Overcast
3:35 AM 34.0 °F - 26.4 °F 74% 30.15 in 10.0 mi Calm Calm - N/A   Overcast
3:55 AM 34.2 °F - 26.2 °F 73% 30.16 in 10.0 mi Calm Calm - N/A   Overcast
4:15 AM 34.3 °F - 26.4 °F 73% 30.16 in 10.0 mi Calm Calm - N/A   Overcast
4:35 AM 34.5 °F 31.6 °F 26.4 °F 72% 30.17 in 10.0 mi North 3.5 mph - N/A   Overcast
4:54 AM 34.7 °F 31.8 °F 26.2 °F 71% 30.18 in 10.0 mi North 3.5 mph - N/A   Overcast
5:15 AM 34.7 °F 29.6 °F 25.9 °F 70% 30.18 in 10.0 mi North 5.8 mph - N/A   Overcast
5:35 AM 34.3 °F 29.2 °F 26.1 °F 72% 30.18 in 10.0 mi North 5.8 mph - N/A   Overcast
5:55 AM 34.2 °F 30.0 °F 26.1 °F 72% 30.18 in 10.0 mi North 4.6 mph - N/A   Overcast
6:15 AM 34.0 °F 31.0 °F 26.2 °F 73% 30.18 in 10.0 mi North 3.5 mph - N/A   Overcast
6:35 AM 34.0 °F - 26.1 °F 73% 30.18 in 10.0 mi Calm Calm - N/A   Overcast
6:55 AM 34.0 °F 29.8 °F 25.9 °F 72% 30.18 in 10.0 mi NNW 4.6 mph - N/A   Overcast
7:15 AM 34.0 °F 31.0 °F 26.1 °F 73% 30.19 in 10.0 mi NNW 3.5 mph - N/A   Overcast
7:35 AM 34.0 °F 29.8 °F 26.2 °F 73% 30.20 in 10.0 mi NNW 4.6 mph - N/A   Overcast
7:55 AM 34.0 °F 28.8 °F 25.9 °F 72% 30.20 in 10.0 mi North 5.8 mph - N/A   Overcast
8:15 AM 34.0 °F 29.8 °F 25.9 °F 72% 30.21 in 10.0 mi North 4.6 mph - N/A   Overcast
8:35 AM 34.3 °F 30.2 °F 25.9 °F 71% 30.21 in 10.0 mi NNW 4.6 mph - N/A   Overcast
8:55 AM 35.1 °F 30.1 °F 26.2 °F 70% 30.20 in 10.0 mi North 5.8 mph - N/A   Overcast
9:14 AM 35.6 °F 29.2 °F 25.7 °F 67% 30.20 in 10.0 mi NNW 8.1 mph - N/A   Overcast
9:35 AM 36.0 °F 29.6 °F 25.7 °F 66% 30.20 in 10.0 mi North 8.1 mph - N/A   Overcast
9:55 AM 36.5 °F 31.8 °F 25.5 °F 64% 30.19 in 10.0 mi NNW 5.8 mph - N/A   Overcast
10:15 AM 36.7 °F 32.0 °F 25.9 °F 65% 30.19 in 10.0 mi NW 5.8 mph - N/A   Overcast
10:35 AM 38.1 °F 34.6 °F 25.7 °F 61% 30.19 in 10.0 mi North 4.6 mph - N/A   Overcast
10:55 AM 38.1 °F 33.7 °F 25.7 °F 61% 30.19 in 10.0 mi NNW 5.8 mph - N/A   Mostly Cloudy
11:15 AM 38.3 °F 33.2 °F 25.9 °F 61% 30.19 in 10.0 mi North 6.9 mph - N/A   Scattered Clouds
11:35 AM 38.3 °F 33.2 °F 25.7 °F 61% 30.19 in 10.0 mi NNW 6.9 mph - N/A   Scattered Clouds
11:54 AM 37.8 °F 33.3 °F 25.7 °F 62% 30.19 in 10.0 mi WNW 5.8 mph - N/A   Overcast
12:15 PM 38.1 °F 35.7 °F 25.7 °F 61% 30.19 in 10.0 mi WNW 3.5 mph - N/A   Overcast
12:34 PM 38.7 °F 33.6 °F 26.1 °F 61% 30.19 in 10.0 mi NW 6.9 mph - N/A   Overcast
12:55 PM 39.2 °F 35.9 °F 25.5 °F 58% 30.18 in 10.0 mi NW 4.6 mph - N/A   Mostly Cloudy
1:15 PM 39.4 °F 35.2 °F 26.1 °F 59% 30.18 in 10.0 mi NNW 5.8 mph - N/A   Mostly Cloudy
1:34 PM 39.4 °F - 25.5 °F 58% 30.18 in 10.0 mi Calm Calm - N/A   Scattered Clouds
1:55 PM 39.4 °F 36.1 °F 25.5 °F 58% 30.17 in 10.0 mi North 4.6 mph - N/A   Mostly Cloudy
2:15 PM 39.6 °F 37.4 °F 25.7 °F 58% 30.17 in 10.0 mi WSW 3.5 mph - N/A   Mostly Cloudy
2:35 PM 39.2 °F 37.0 °F 25.2 °F 57% 30.17 in 10.0 mi WSW 3.5 mph - N/A   Scattered Clouds
2:55 PM 39.6 °F - 25.0 °F 56% 30.16 in 10.0 mi Calm Calm - N/A   Scattered Clouds
3:14 PM 39.9 °F - 25.5 °F 56% 30.16 in 10.0 mi Calm Calm - N/A   Overcast
3:35 PM 39.6 °F - 25.0 °F 56% 30.17 in 10.0 mi Calm Calm - N/A   Overcast
3:55 PM 39.9 °F - 25.9 °F 57% 30.16 in 10.0 mi Calm Calm - N/A   Overcast
4:15 PM 39.4 °F - 25.3 °F 57% 30.16 in 10.0 mi Calm Calm - N/A   Scattered Clouds
4:35 PM 39.2 °F - 25.3 °F 58% 30.16 in 10.0 mi Calm Calm - N/A   Scattered Clouds
4:55 PM 38.8 °F - 24.8 °F 57% 30.16 in 10.0 mi Calm Calm - N/A   Scattered Clouds
5:15 PM 38.7 °F - 24.8 °F 58% 30.16 in 10.0 mi Calm Calm - N/A   Mostly Cloudy
5:35 PM 38.5 °F - 26.2 °F 61% 30.16 in 10.0 mi Calm Calm - N/A   Overcast
5:54 PM 38.3 °F - 27.1 °F 64% 30.16 in 10.0 mi Calm Calm - N/A   Overcast
6:15 PM 38.5 °F - 26.6 °F 62% 30.16 in 10.0 mi Calm Calm - N/A   Overcast
6:35 PM 38.5 °F - 27.0 °F 63% 30.17 in 10.0 mi Calm Calm - N/A   Overcast
6:55 PM 38.3 °F - 26.6 °F 63% 30.18 in 10.0 mi Calm Calm - N/A   Overcast
7:15 PM 37.9 °F - 26.6 °F 64% 30.18 in 10.0 mi Calm Calm - N/A   Overcast
7:35 PM 37.4 °F - 26.6 °F 65% 30.18 in 10.0 mi Calm Calm - N/A   Overcast
7:55 PM 37.2 °F - 26.6 °F 65% 30.18 in 10.0 mi Calm Calm - N/A   Overcast
8:15 PM 36.9 °F - 26.8 °F 67% 30.18 in 10.0 mi Calm Calm - N/A   Overcast
8:35 PM 36.5 °F 33.9 °F 26.8 °F 68% 30.18 in 10.0 mi WNW 3.5 mph - N/A   Overcast
8:55 PM 36.5 °F - 27.0 °F 68% 30.18 in 10.0 mi Calm Calm - N/A   Overcast
9:15 PM 36.5 °F - 26.6 °F 67% 30.18 in 10.0 mi Calm Calm - N/A   Overcast
9:35 PM 36.5 °F - 26.6 °F 67% 30.18 in 10.0 mi Calm Calm - N/A   Overcast
9:55 PM 35.6 °F - 26.6 °F 70% 30.18 in 10.0 mi Calm Calm - N/A   Overcast
10:14 PM 34.7 °F - 26.2 °F 71% 30.18 in 10.0 mi Calm Calm - N/A   Overcast
10:35 PM 33.8 °F - 25.7 °F 72% 30.17 in 10.0 mi Calm Calm - N/A   Overcast
10:55 PM 32.7 °F - 25.7 °F 75% 30.17 in 10.0 mi Calm Calm - N/A   Overcast